When you browse on this site, cookies collect data to enhance your experience and personalize the content and advertising you see.
Visit our Privacy Policy to learn more. By continuing to use the site, you agree to this use of cookies and data.
  • In Österreich
  • Länderverzeichnis
  • Für 7 Tage
  • Wassertemperatur
  • Wetterkarte
  • News
  • Widgets
  • user-avatar
    Anmelden

    Stündliche Wetter Hlukhiv Pershyi

    Heute, 18 Januar, Samstag

    Zeit Temperatur Niederschläge Wind Luftdruck Luftfeuchtigkeit
    00:00 -3°C° 0 mm 2 m/S 756 mmHg 94%
    01:00 -3°C° 0 mm 2 m/S 756 mmHg 94%
    02:00 -3°C° 0 mm 2 m/S 756 mmHg 94%
    03:00 -3°C° 0 mm 2 m/S 756 mmHg 94%
    04:00 -3°C° 0 mm 2 m/S 755 mmHg 94%
    05:00 -3°C° 0 mm 2 m/S 755 mmHg 94%
    06:00 -3°C° 0 mm 2 m/S 755 mmHg 94%
    07:00 -4°C° 0 mm 3 m/S 755 mmHg 94%
    08:00 -4°C° 0 mm 3 m/S 755 mmHg 93%
    09:00 -2°C° 0 mm 3 m/S 755 mmHg 88%
    10:00 -2°C° 0 mm 4 m/S 755 mmHg 83%
    11:00 -2°C° 0 mm 4 m/S 754 mmHg 77%
    12:00 -1°C° 0 mm 4 m/S 754 mmHg 75%
    13:00 +1°C° 0 mm 3 m/S 754 mmHg 72%
    14:00 +1°C° 0 mm 3 m/S 754 mmHg 70%
    15:00 0°C° 0 mm 3 m/S 753 mmHg 75%
    16:00 -1°C° 0 mm 3 m/S 753 mmHg 80%
    17:00 -2°C° 0 mm 3 m/S 753 mmHg 86%
    18:00 -2°C° 0 mm 3 m/S 753 mmHg 86%
    19:00 -2°C° 0 mm 3 m/S 753 mmHg 87%
    20:00 -4°C° 0 mm 3 m/S 753 mmHg 88%
    21:00 -4°C° 0 mm 3 m/S 753 mmHg 88%
    22:00 -3°C° 0 mm 2 m/S 753 mmHg 88%
    23:00 -3°C° 0 mm 2 m/S 752 mmHg 88%

    Morgen, 19 Januar, Sonntag

    Zeit Temperatur Niederschläge Wind Luftdruck Luftfeuchtigkeit
    00:00 -3°C° 0 mm 2 m/S 753 mmHg 88%
    01:00 -3°C° 0 mm 2 m/S 753 mmHg 88%
    02:00 -3°C° 0 mm 2 m/S 753 mmHg 88%
    03:00 -3°C° 0 mm 2 m/S 753 mmHg 88%
    04:00 -3°C° 0 mm 2 m/S 753 mmHg 88%
    05:00 -3°C° 0 mm 2 m/S 753 mmHg 88%
    06:00 -4°C° 0 mm 2 m/S 753 mmHg 88%
    07:00 -4°C° 0 mm 2 m/S 753 mmHg 89%
    08:00 -4°C° 0 mm 2 m/S 754 mmHg 89%
    09:00 -3°C° 0 mm 2 m/S 754 mmHg 84%
    10:00 -2°C° 0 mm 2 m/S 754 mmHg 79%
    11:00 -1°C° 0 mm 2 m/S 754 mmHg 74%
    12:00 -1°C° 0 mm 2 m/S 755 mmHg 72%
    13:00 +2°C° 0 mm 1 m/S 755 mmHg 69%
    14:00 +3°C° 0 mm 1 m/S 755 mmHg 67%
    15:00 +2°C° 0 mm 1 m/S 755 mmHg 71%
    16:00 0°C° 0 mm 0 m/S 755 mmHg 76%
    17:00 -1°C° 0 mm 0 m/S 755 mmHg 80%
    18:00 -1°C° 0 mm 0 m/S 756 mmHg 81%
    19:00 0°C° 0 mm 1 m/S 757 mmHg 81%
    20:00 0°C° 0 mm 1 m/S 757 mmHg 82%
    21:00 0°C° 0 mm 1 m/S 757 mmHg 82%
    22:00 0°C° 0 mm 1 m/S 758 mmHg 83%
    23:00 -1°C° 0 mm 1 m/S 758 mmHg 84%

    übermorgen, 20 Januar, Montag

    Zeit Temperatur Niederschläge Wind Luftdruck Luftfeuchtigkeit
    00:00 -1°C° 0 mm 1 m/S 758 mmHg 85%
    01:00 -3°C° 0 mm 2 m/S 759 mmHg 85%
    02:00 -3°C° 0 mm 2 m/S 759 mmHg 86%
    03:00 -3°C° 0 mm 2 m/S 759 mmHg 87%
    04:00 -3°C° 0 mm 2 m/S 759 mmHg 88%
    05:00 -3°C° 0 mm 2 m/S 759 mmHg 89%
    06:00 -3°C° 0 mm 2 m/S 759 mmHg 90%
    07:00 -2°C° 0 mm 2 m/S 760 mmHg 91%
    08:00 -2°C° 0 mm 2 m/S 760 mmHg 92%
    09:00 -1°C° 0 mm 3 m/S 760 mmHg 89%
    10:00 -1°C° 0 mm 3 m/S 761 mmHg 86%
    11:00 0°C° 0 mm 3 m/S 761 mmHg 83%
    12:00 0°C° 0 mm 4 m/S 761 mmHg 81%
    13:00 0°C° 0 mm 4 m/S 761 mmHg 79%
    14:00 +1°C° 0 mm 4 m/S 761 mmHg 76%
    15:00 0°C° 0 mm 4 m/S 761 mmHg 81%
    16:00 -1°C° 0 mm 4 m/S 760 mmHg 86%
    17:00 -2°C° 0 mm 4 m/S 760 mmHg 90%
    18:00 -2°C° 0 mm 4 m/S 760 mmHg 91%
    19:00 -2°C° 0 mm 4 m/S 760 mmHg 91%
    20:00 -2°C° 0 mm 5 m/S 761 mmHg 92%
    21:00 -4°C° 0 mm 5 m/S 760 mmHg 92%
    22:00 -4°C° 0 mm 5 m/S 760 mmHg 92%
    23:00 -4°C° 0 mm 5 m/S 760 mmHg 92%

    21 Januar, Dienstag

    Zeit Temperatur Niederschläge Wind Luftdruck Luftfeuchtigkeit
    00:00 -4°C° 0 mm 5 m/S 760 mmHg 91%
    01:00 -4°C° 0 mm 5 m/S 759 mmHg 90%
    02:00 -4°C° 0 mm 5 m/S 759 mmHg 89%
    03:00 -4°C° 0 mm 5 m/S 758 mmHg 88%
    04:00 -4°C° 0 mm 6 m/S 758 mmHg 87%
    05:00 -4°C° 0 mm 6 m/S 757 mmHg 86%
    06:00 -3°C° 0 mm 6 m/S 757 mmHg 85%
    07:00 -3°C° 0 mm 6 m/S 756 mmHg 84%
    08:00 -3°C° 0 mm 7 m/S 756 mmHg 84%
    09:00 -3°C° 0 mm 6 m/S 756 mmHg 83%
    10:00 -3°C° 0 mm 6 m/S 756 mmHg 83%
    11:00 -3°C° 0 mm 6 m/S 755 mmHg 83%
    12:00 -2°C° 0 mm 6 m/S 755 mmHg 82%
    13:00 -2°C° 0 mm 6 m/S 754 mmHg 80%
    14:00 -1°C° 0 mm 6 m/S 754 mmHg 78%
    15:00 -1°C° 0 mm 6 m/S 753 mmHg 80%
    16:00 -1°C° 0 mm 6 m/S 753 mmHg 82%
    17:00 -2°C° 0 mm 6 m/S 752 mmHg 84%
    18:00 -2°C° 0 mm 6 m/S 752 mmHg 84%
    19:00 -2°C° 0 mm 7 m/S 751 mmHg 85%
    20:00 -2°C° 0 mm 7 m/S 750 mmHg 85%
    21:00 -2°C° 0 mm 7 m/S 750 mmHg 82%
    22:00 -2°C° 0 mm 7 m/S 749 mmHg 79%
    23:00 -2°C° 0 mm 7 m/S 749 mmHg 75%

    22 Januar, Mittwoch

    Zeit Temperatur Niederschläge Wind Luftdruck Luftfeuchtigkeit
    00:00 -2°C° 0 mm 8 m/S 749 mmHg 74%
    01:00 -2°C° 0 mm 8 m/S 748 mmHg 73%
    02:00 -2°C° 0 mm 8 m/S 748 mmHg 72%
    03:00 -2°C° 0 mm 8 m/S 747 mmHg 74%
    04:00 -2°C° 0 mm 8 m/S 747 mmHg 77%
    05:00 -2°C° 0 mm 8 m/S 747 mmHg 79%
    06:00 -2°C° 0 mm 8 m/S 746 mmHg 80%
    07:00 -1°C° 0 mm 8 m/S 746 mmHg 82%
    08:00 -1°C° 0 mm 8 m/S 746 mmHg 83%
    09:00 -1°C° 0 mm 8 m/S 746 mmHg 86%
    10:00 -1°C° 0 mm 8 m/S 746 mmHg 88%
    11:00 -1°C° 0 mm 8 m/S 746 mmHg 91%
    12:00 0°C° 0 mm 8 m/S 746 mmHg 86%
    13:00 0°C° 0 mm 8 m/S 745 mmHg 81%
    14:00 0°C° 0 mm 8 m/S 745 mmHg 76%
    15:00 -1°C° 0 mm 7 m/S 745 mmHg 74%
    16:00 -1°C° 0 mm 6 m/S 745 mmHg 72%
    17:00 -2°C° 0 mm 6 m/S 745 mmHg 70%
    18:00 -2°C° 0 mm 6 m/S 745 mmHg 70%
    19:00 -3°C° 0 mm 6 m/S 745 mmHg 70%
    20:00 -3°C° 0 mm 6 m/S 745 mmHg 71%
    21:00 -3°C° 0 mm 6 m/S 745 mmHg 74%
    22:00 -3°C° 0 mm 6 m/S 745 mmHg 77%
    23:00 -4°C° 0 mm 6 m/S 745 mmHg 81%

    23 Januar, Donnerstag

    Zeit Temperatur Niederschläge Wind Luftdruck Luftfeuchtigkeit
    00:00 -4°C° 0 mm 6 m/S 745 mmHg 78%
    01:00 -4°C° 0 mm 7 m/S 745 mmHg 76%
    02:00 -4°C° 0 mm 7 m/S 746 mmHg 74%
    03:00 -4°C° 0 mm 7 m/S 746 mmHg 74%
    04:00 -4°C° 0 mm 7 m/S 746 mmHg 75%
    05:00 -4°C° 0 mm 6 m/S 747 mmHg 75%
    06:00 -4°C° 0 mm 6 m/S 747 mmHg 77%
    07:00 -5°C° 0 mm 6 m/S 747 mmHg 78%
    08:00 -5°C° 0 mm 6 m/S 748 mmHg 79%
    09:00 -4°C° 0 mm 6 m/S 748 mmHg 76%
    10:00 -4°C° 0 mm 7 m/S 748 mmHg 73%
    11:00 -4°C° 0 mm 8 m/S 749 mmHg 70%
    12:00 -4°C° 0 mm 8 m/S 749 mmHg 68%
    13:00 -4°C° 0 mm 8 m/S 749 mmHg 66%
    14:00 -4°C° 0 mm 8 m/S 749 mmHg 64%
    15:00 -3°C° 0 mm 7 m/S 749 mmHg 65%
    16:00 -3°C° 0 mm 7 m/S 749 mmHg 67%
    17:00 -4°C° 0 mm 6 m/S 750 mmHg 68%
    18:00 -4°C° 0 mm 6 m/S 750 mmHg 70%
    19:00 -4°C° 0 mm 6 m/S 750 mmHg 72%
    20:00 -4°C° 0 mm 6 m/S 751 mmHg 74%
    21:00 -4°C° 0 mm 6 m/S 751 mmHg 73%
    22:00 -5°C° 0 mm 5 m/S 751 mmHg 73%
    23:00 -5°C° 0 mm 5 m/S 752 mmHg 73%
    Mehr zeigen